STARLINK-32917, 62921

Orbit data source: Space-Track

STARLINK-32917, 62921 is a payload satellite owned by SpaceX/Seattle (US) in LEO that was launched on Sat, 08 Feb 2025 UTC via an FALCON 9 launch vehicle from the Air Force Eastern Test Range (AFETR). Payload-class satellites include a variety of spacecraft equipped with specific instruments for various scientific and technological missions. These include communications satellites like Starlink; space stations such as the ISS; scientific satellites like the Hubble; Earth observation satellites from companies like Planet Labs, Umbra, and HawkEye 360; GPS; miniature CubeSats for education and research; and military/defense satellites.

Loading next visibility...
Identifier
62921, 2025-027Q
Orbit
LEO
Country
Flag of USUS
Related business
Manufacturer
SpaceX/Seattle
Mission
Operational Commercial Communications
Bus & Motor
STARLINK V2M, Unknown motor
Mass
730 kg wet, ~700 kg dry
Launch date (UTC)
2025-02-08 (1 year ago)
Launch vehicle
FALCON 9
Launch site
Air Force Eastern Test Range (AFETR)
Object type
Payload
Rocket body
Debris
Shape & HBR
Box + 2 Pan, 17.7 m
Radar Cross Section
33.884 m², Large (>1 m²)

Expand to show TLE details & history
Last TLE update: 1 day ago

TLE from 1 day ago
0 STARLINK-32917
1 62921U 25027Q   26174.89010709  .00015555  00000-0  57362-3 0  9997
2 62921  42.9989 249.1590 0001496 263.5785  96.4897 15.27578471 77788
Epoch: 2026-06-23T21:21Z
TLE epoch observation values (Epoch: 2026-06-23T21:21:45.252Z)
Latitude
0.00003°
Longitude
16.66529°
Altitude
482.945 km
Speed
7.626 km/s
True Right ascension
16h 36m 38s
True Declination
0° 00' 00"
Sunlit
Object was in full shadow at epoch
Visualization orbit readout
Latitude
Unknown
Longitude
Unknown
Altitude
Unknown
Speed
Unknown
Apparent Right ascension
Unknown
Apparent Declination
Unknown
Sunlit
N/A
Visualization observer readout
Local Sidereal Time
13:19:54
Azimuth
Unknown
Elevation
Unknown
Doppler factor
Unknown
Orbital elements
Apogee altitude
486.026 km
Perigee altitude
483.972 km
Semi-major axis
6,863.136 km
Eccentricity
0.00015
Inclination
42.9989°
RAAN
249.159°
Arg. of periapsis
263.5785°
True anomaly
96.50673°
Mean anomaly
96.4897°
Eccentric anomaly
96.49822°
Mean motion
3.81733 °/min
Orbital period
94.31 mins
BSTAR
0.00057362
Loading maneuver chart data...
Computing Atmospheric mass density...
Loading historical data...
Loading historical data...
Loading historical data...
Loading historical data...
Loading historical data...
Loading historical data...
Loading historical data...

Documentation

Showing up to 5 results
|